Regional Weather Roundup
Issued by NWS

Home | Current Version | Previous Version | Graphics & Text | Print | Product List | Glossary On
Versions: 1 2 3 4 5 6 7 8 9 10 11 12 13 14 15 16 17 18 19 20 21 22 23 24 25 26 27 28 29 30 31 32 33 34 35 36 37 38 39 40 41 42 43 44 45 46 47 48 49 50
000
ASUS45 KBOU 202107
RWRCO

WEATHER ROUNDUP FOR COLORADO
NATIONAL WEATHER SERVICE DENVER/BOULDER CO
200 PM MST MON FEB 20 2017

NOTE: "FAIR" INDICATES FEW OR NO CLOUDS BELOW 12000 FEET WITH NO
SIGNIFICANT WEATHER AND/OR OBSTRUCTIONS TO VISIBILITY.

COZ001>005-013-030-031-202200-
...NORTHWEST COLORADO...

CITY           SKY/WX    TMP DP  RH WIND       PRES   REMARKS
CRAIG          CLOUDY    46  31  55 SW17G24   30.15F
HAYDEN         CLOUDY    39  27  60 E6        30.15F
MEEKER         PTSUNNY   49  33  54 SW18G25   30.16F
MOUNT WERNER   NOT AVBL
STEAMBOAT SPGS PTSUNNY   40  27  58 CALM      30.16F
WALDEN         NOT AVBL
$$

COZ006>008-011-202200-
...WEST CENTRAL VALLEYS...

CITY           SKY/WX    TMP DP  RH WIND       PRES   REMARKS
GRAND JUNCTION FAIR      52  38  58 VRB3      30.17F
MONTROSE       FAIR      53  29  39 VRB5      30.20F
EAGLE          MOSUNNY   48  25  40 W16       30.19F
RIFLE          FAIR      51  32  48 VRB3      30.17F
DELTA          FAIR      56  31  39 E5        30.20F
NUCLA          FAIR      50  34  53 SW10      30.25F
$$

COZ017>023-064>068-202200-
...SOUTHWEST COLORADO...

CITY           SKY/WX    TMP DP  RH WIND       PRES   REMARKS
DURANGO        FAIR      49  32  52 SW9G20    30.22F
CORTEZ         FAIR      50  36  58 NW8       30.24F
PAGOSA SPRINGS FAIR      42  27  54 W3        30.26S
TELLURIDE      FAIR      42  15  32 W6        30.27S
WOLF CREEK PAS FAIR      27  21  80 SW9       30.33S WCI  17
$$

COZ009-010-012-014-032>034-037-058>063-202200-
...CENTRAL COLORADO...

CITY           SKY/WX    TMP DP  RH WIND       PRES   REMARKS
ASPEN          FAIR      43  18  36 N6        30.18F
BUENA VISTA    FAIR      48  14  25 W18G29    30.13F
COPPER MTN     NOT AVBL
BERTHOUD PASS  FAIR      19   9  63 W30G44    30.19S WCI   0
COTTONWOOD PAS FAIR      39  10  30 SW37G53   30.15F
GUNNISON       FAIR      33  24  69 SE3       30.25F
KREMMLING      FAIR      50  27  40 SW13G20   30.18F
LEADVILLE      FAIR      35  14  42 N12       30.19F WCI  27
MONARCH PASS   FAIR      21  18  86 W41       30.34R WCI   0
SALIDA         FAIR      53  15  22 SW25G31   30.20F
SUNLIGHT       NOT AVBL
WILKERSON PASS FAIR      34   9  35 W12G30    30.21S WCI  25
$$

COZ069>075-202200-
...SAN LUIS VALLEY/SANGRE DE CRISTO MOUNTAINS...

CITY           SKY/WX    TMP DP  RH WIND       PRES   REMARKS
ALAMOSA        FAIR      48  21  34 S8        30.18F
LA VETA PASS   FAIR      39  18  41 MISG      30.19F
SAGUACHE       FAIR      50  16  25 N17       30.17S
$$

COZ035-036-038>040-202200-
...NORTHERN COLORADO FRONT RANGE...

CITY           SKY/WX    TMP DP  RH WIND       PRES   REMARKS
DENVER INTL AP FAIR      59  11  15 SW5       29.99F
DMNS CITY PARK   N/A     60  10  14 N18       29.99S
AURORA         MOSUNNY   59  12  15 NW10      30.01R
FRONT RANGE AP NOT AVBL
ERIE MUNI ARPT FAIR      63   8  11 CALM      29.97F
BOULDER MUN AP FAIR      61  14  16 W12       29.98S
CENTENNIAL     FAIR      58   7  13 N7G18     30.01R
BROOMFIELD     MOSUNNY   61  10  13 W25G35    30.01R
FORT COLLINS   FAIR      63  16  16 SW12G18   29.95F
LONGMONT       FAIR      64  14  14 W17G28    29.98F
$$

COZ041-046-047-076>085-087-088-202200-
...PIKES PEAK/PALMER DIVIDE AND SOUTHERN FOOTHILLS...

CITY           SKY/WX    TMP DP  RH WIND       PRES   REMARKS
COLO. SPRINGS  FAIR      56   3  11 VRB3      30.04F
A. F. ACADEMY  FAIR      59   3  10 NW16      30.02R
SCHRIEVER AFB  FAIR      55   4  12 S8G17     30.04F
ELLICOTT       FAIR     N/A N/A N/A VRB6      30.03F
FALCON         FAIR      57   4  12 SW10G18   30.06S
FORT CARSON    FAIR      59   4  11 E8        30.02F
LIMON          FAIR      58  13  17 NW15G23   30.02R
MONUMENT HILL  FAIR      52   9  17 NW3       30.06S
TRINIDAD       FAIR      61  10  13 N6        30.05F
$$

COZ042>045-048>051-090-091-202200-
...NORTHEAST COLORADO...

CITY           SKY/WX    TMP DP  RH WIND       PRES   REMARKS
GREELEY ARPT   FAIR      62  15  16 S9G17     29.97F
AKRON          FAIR      60  12  15 N20G29    29.99R
BURLINGTON     FAIR      62  10  13 N18G33    29.97
WRAY           NOT AVBL
STERLING       FAIR      63  18  17 N16G24    29.94S
HOLYOKE        FAIR      63  12  14 NW9G29    29.95R
FORT MORGAN    FAIR      64  13  13 NW15      29.98R
$$

COZ086-089-092>099-202200-
...SOUTHEAST COLORADO...

CITY           SKY/WX    TMP DP  RH WIND       PRES   REMARKS
PUEBLO         FAIR      65   8  10 E15       29.98F
LA JUNTA       FAIR      67   6   9 NW14G21   29.99F
LAMAR          FAIR      66   9  10 N17G23    29.95S
SPRINGFIELD      N/A     63   9  12 N21G31    30.00S
$$



USA.gov is the U.S. government's official web portal to all federal, state and local government web resources and services.